Showing default

HULIANWANG DIGUI-124, 67064

Orbit data source: Space-Track

HULIANWANG DIGUI-124, 67064 is a payload satellite owned by Zhongguo Xingwang (CN) in LEO that was launched on Thu, 11 Dec 2025 UTC via a CHANG ZHENG 12 launch vehicle from the Wenchang Satellite Launch Center (WSC). Payload-class satellites include a variety of spacecraft equipped with specific instruments for various scientific and technological missions. These include communications satellites like Starlink; space stations such as the ISS; scientific satellites like the Hubble; Earth observation satellites from companies like Planet Labs, Umbra, and HawkEye 360; GPS; miniature CubeSats for education and research; and military/defense satellites.

Loading next visibility...
Identifier
67064, 2025-295F
Orbit
LEO
Country
Flag of CNCN / PRC
Related business
Manufacturer
SECM
Mission
Operational Civil Communications
Bus & Motor
XINGWANG S, Unknown motor
Mass
~800 kg wet, ~800 kg dry
Launch date (UTC)
2025-12-11 (6 months ago)
Launch vehicle
CHANG ZHENG 12
Launch site
Wenchang Satellite Launch Center (WSC)
Object type
Payload
Rocket body
Debris
Shape & HBR
Box + 2 Pan, 14.5 m
Radar Cross Section
5.935 m², Large (>1 m²)

Expand to show TLE details & history
Last TLE update: 14 hours ago

TLE from 14 hours ago
0 HULIANWANG DIGUI-124
1 67064U 25295F   26171.27242971 -.00000091  00000-0  70366-4 0  9994
2 67064  50.0012  14.2840 0001035  96.6144 263.4846 13.29327819 25916
Epoch: 2026-06-20T06:32Z
TLE epoch observation values (Epoch: 2026-06-20T06:32:17.926Z)
Latitude
-0.00003°
Longitude
7.71985°
Altitude
1,149.894 km
Speed
7.279 km/s
True Right ascension
00h 57m 08s
True Declination
0° 00' 00"
Sunlit
Object was in daylight at epoch
Visualization orbit readout
Latitude
Unknown
Longitude
Unknown
Altitude
Unknown
Speed
Unknown
Apparent Right ascension
Unknown
Apparent Declination
Unknown
Sunlit
N/A
Visualization observer readout
Local Sidereal Time
07:14:12
Azimuth
Unknown
Elevation
Unknown
Doppler factor
Unknown
Orbital elements
Apogee altitude
1,150.784 km
Perigee altitude
1,149.226 km
Semi-major axis
7,528.142 km
Eccentricity
0.0001
Inclination
50.0012°
RAAN
14.284°
Arg. of periapsis
96.6144°
True anomaly
263.47282°
Mean anomaly
263.4846°
Eccentric anomaly
263.47871°
Mean motion
3.32286 °/min
Orbital period
108.34 mins
BSTAR
0.000070366
Loading maneuver chart data...
Computing Atmospheric mass density...
Loading historical data...
Loading historical data...
Loading historical data...
Loading historical data...
Loading historical data...
Loading historical data...
Loading historical data...

Documentation

Showing up to 5 results
|